📊 Raw Sensor Data
Showing records 52176 to 52200 of 85,269 total
| ID | Distance (ft) | Battery V | Battery A | Int Temp (°F) | Int Humid (%) | Ext Temp (°F) | Solar V | RSSI | SNR | Time Stamp |
|---|---|---|---|---|---|---|---|---|---|---|
| 33106 | 14.6 | 3.76 | 0 | 64 | 33 | 66 | 5.10 | -76 | 8 | 02/22/2025 10:15 AM |
| 33105 | 14.5 | 3.76 | 0 | 60 | 34 | 60 | 5.10 | -76 | 8 | 02/22/2025 10:00 AM |
| 33104 | 14.5 | 3.76 | 0 | 58 | 34 | 58 | 5.10 | -77 | 8 | 02/22/2025 09:45 AM |
| 33103 | 14.5 | 3.76 | 0 | 56 | 35 | 57 | 5.10 | -77 | 8 | 02/22/2025 09:30 AM |
| 33102 | 14.5 | 3.76 | 0 | 54 | 35 | 57 | 5.10 | -77 | 8 | 02/22/2025 09:15 AM |
| 33101 | 14.4 | 3.95 | 0 | 52 | 35 | 56 | 5.10 | -77 | 7 | 02/22/2025 09:00 AM |
| 33100 | 14.3 | 3.76 | 0 | 50 | 35 | 52 | 5.10 | -77 | 8 | 02/22/2025 08:45 AM |
| 33099 | 14.3 | 3.77 | 0 | 49 | 35 | 54 | 5.10 | -77 | 7 | 02/22/2025 08:30 AM |
| 33098 | 14.3 | 3.85 | 9 | 47 | 35 | 49 | 5.00 | -77 | 8 | 02/22/2025 08:15 AM |
| 33097 | 14.3 | 4.00 | 101 | 46 | 35 | 50 | 4.50 | -77 | 8 | 02/22/2025 08:00 AM |
| 33096 | 14.2 | 3.86 | 29 | 44 | 36 | 47 | 4.50 | -77 | 8 | 02/22/2025 07:45 AM |
| 33095 | 14.2 | 3.85 | 32 | 43 | 36 | 46 | 4.50 | -77 | 8 | 02/22/2025 07:30 AM |
| 33094 | 14.2 | 3.84 | 9 | 42 | 37 | 43 | 4.50 | -76 | 8 | 02/22/2025 07:15 AM |
| 33093 | 14.2 | 3.78 | 0 | 41 | 38 | 43 | 4.60 | -76 | 8 | 02/22/2025 07:00 AM |
| 33092 | 14.2 | 3.76 | -6 | 40 | 38 | 42 | 1.70 | -77 | 9 | 02/22/2025 06:45 AM |
| 33091 | 14.2 | 3.81 | -5 | 41 | 38 | 42 | 1.40 | -78 | 8 | 02/22/2025 06:30 AM |
| 33090 | 14.2 | 3.76 | -5 | 42 | 38 | 42 | 0.10 | -78 | 8 | 02/22/2025 06:15 AM |
| 33089 | 14.2 | 3.76 | -5 | 42 | 37 | 44 | 0.00 | -78 | 7 | 02/22/2025 06:00 AM |
| 33088 | 14.2 | 3.76 | -5 | 43 | 37 | 45 | 0.00 | -77 | 8 | 02/22/2025 05:45 AM |
| 33087 | 14.2 | 3.76 | -5 | 42 | 38 | 44 | 0.00 | -78 | 8 | 02/22/2025 05:30 AM |
| 33086 | 14.2 | 3.76 | -5 | 41 | 38 | 43 | 0.10 | -78 | 8 | 02/22/2025 05:15 AM |
| 33085 | 14.2 | 3.76 | -5 | 41 | 37 | 42 | 0.00 | -77 | 8 | 02/22/2025 05:00 AM |
| 33084 | 14.2 | 3.76 | -5 | 41 | 38 | 43 | 0.10 | -77 | 8 | 02/22/2025 04:45 AM |
| 33083 | 14.2 | 3.82 | -5 | 41 | 37 | 43 | 0.00 | -77 | 8 | 02/22/2025 04:30 AM |
| 33082 | 14.2 | 3.77 | -5 | 41 | 38 | 44 | 0.00 | -77 | 8 | 02/22/2025 04:15 AM |